Table Rock Lake Weather Center

Moon Phase Calendar



Table Rock Lake Water Level
Online Cameras

 


      

Current Conditions in Kimberling City
11/28/2022 4:50:59 PM

55°F
Feels Like 53
Clear
Humidity
54%
Pressure
29.83"
Wind
9.2 mph (ESE)
Dew Point
39°F
UV Index
0/10 (Low)
Visibility
6 mi

Hourly Forecast

Date & Time Mon, Nov 28
4:00 PM
Mon, Nov 28
5:00 PM
Mon, Nov 28
6:00 PM
Mon, Nov 28
7:00 PM
Mon, Nov 28
8:00 PM
Mon, Nov 28
9:00 PM
Mon, Nov 28
10:00 PM
Mon, Nov 28
11:00 PM
Tue, Nov 29
12:00 AM
Tue, Nov 29
1:00 AM
Tue, Nov 29
2:00 AM
Tue, Nov 29
3:00 AM
Tue, Nov 29
4:00 AM
Tue, Nov 29
5:00 AM
Tue, Nov 29
6:00 AM
Tue, Nov 29
7:00 AM
Tue, Nov 29
8:00 AM
Tue, Nov 29
9:00 AM
Tue, Nov 29
10:00 AM
Tue, Nov 29
11:00 AM
Tue, Nov 29
12:00 PM
Tue, Nov 29
1:00 PM
Tue, Nov 29
2:00 PM
Tue, Nov 29
3:00 PM
Tue, Nov 29
4:00 PM
Tue, Nov 29
5:00 PM
Tue, Nov 29
6:00 PM
Tue, Nov 29
7:00 PM
Tue, Nov 29
8:00 PM
Tue, Nov 29
9:00 PM
Tue, Nov 29
10:00 PM
Tue, Nov 29
11:00 PM
Wed, Nov 30
12:00 AM
Wed, Nov 30
1:00 AM
Wed, Nov 30
2:00 AM
Wed, Nov 30
3:00 AM
Wed, Nov 30
4:00 AM
Wed, Nov 30
5:00 AM
Wed, Nov 30
6:00 AM
Wed, Nov 30
7:00 AM
Wed, Nov 30
8:00 AM
Wed, Nov 30
9:00 AM
Wed, Nov 30
10:00 AM
Wed, Nov 30
11:00 AM
Wed, Nov 30
12:00 PM
Wed, Nov 30
1:00 PM
Wed, Nov 30
2:00 PM
Wed, Nov 30
3:00 PM
Condition
Clear

Clear

Clear

Clouds

Clouds

Clouds

Clouds

Clouds

Clouds

Clouds

Clouds

Clouds

Clouds

Clouds

Clouds

Clouds

Clouds

Clouds

Clouds

Clouds

Clouds

Clear

Clear

Clear

Rain

Rain

Clouds

Clear

Clear

Clear

Clear

Clear

Clear

Clouds

Clouds

Clouds

Clouds

Clouds

Clouds

Clear

Clear

Clear

Clear

Clear

Clear

Clear

Clear

Clear
Temperature 55°F55°F53°F51°F49°F48°F47°F48°F49°F50°F51°F52°F53°F54°F56°F57°F58°F61°F63°F65°F66°F68°F68°F66°F64°F61°F53°F46°F41°F38°F36°F34°F32°F31°F30°F30°F28°F27°F27°F27°F28°F31°F35°F38°F40°F42°F43°F42°F
Feels Like 53°F53°F51°F49°F47°F45°F44°F44°F46°F48°F49°F51°F51°F53°F54°F56°F57°F60°F63°F65°F65°F67°F67°F66°F64°F60°F51°F40°F34°F31°F28°F25°F23°F21°F20°F20°F19°F18°F18°F18°F19°F23°F27°F31°F35°F37°F37°F37°F
Cloudiness 0%0%1%40%60%80%100%100%100%100%100%100%100%100%100%100%86%91%93%94%91%10%5%4%6%17%15%0%0%1%2%3%8%86%88%84%64%51%43%0%0%0%0%0%0%0%0%0%
Visibility 6 mi6 mi6 mi6 mi6 mi6 mi6 mi6 mi6 mi6 mi6 mi6 mi6 mi6 mi6 mi6 mi6 mi6 mi6 mi6 mi6 mi6 mi6 mi6 mi6 mi6 mi6 mi6 mi6 mi6 mi6 mi6 mi6 mi6 mi6 mi6 mi6 mi6 mi6 mi6 mi6 mi6 mi6 mi6 mi6 mi6 mi6 mi6 mi
Precipitation 0%0%0%0%0%0%0%0%0%0%0%0%0%0%0%0%0%0%0%0%0%0%0%0%20%34%14%9%2%0%0%0%0%0%0%0%0%0%0%0%0%0%0%0%0%0%0%0%
Humidity 55%54%59%65%71%75%76%75%72%73%71%70%68%67%66%76%80%76%72%69%68%62%61%65%71%70%64%72%76%77%77%76%77%77%78%69%66%65%64%64%59%47%38%33%30%28%28%29%
Dew Point 40°F39°F40°F40°F40°F40°F40°F39°F40°F41°F42°F43°F43°F43°F45°F49°F52°F53°F54°F55°F55°F54°F54°F54°F54°F51°F41°F37°F33°F31°F29°F27°F26°F24°F24°F20°F18°F16°F16°F16°F15°F13°F12°F11°F11°F11°F12°F12°F
Pressure 29.83"29.83"29.83"29.83"29.85"29.85"29.83"29.83"29.8"29.77"29.74"29.74"29.71"29.68"29.65"29.68"29.65"29.65"29.65"29.62"29.62"29.59"29.59"29.59"29.62"29.65"29.74"29.83"29.91"29.94"30"30.06"30.09"30.15"30.21"30.24"30.27"30.3"30.36"30.39"30.42"30.45"30.45"30.45"30.42"30.42"30.42"30.42"
Wind Speed 6.8 mph5.8 mph5.3 mph5.2 mph5.2 mph6.2 mph6.9 mph7.2 mph8.6 mph9.3 mph9.3 mph10.1 mph11.5 mph12.9 mph14.1 mph14.4 mph15.5 mph16.8 mph16.4 mph16.8 mph17 mph16.4 mph15.4 mph14.2 mph12.9 mph11.4 mph13.3 mph13.8 mph11.2 mph9.9 mph11.3 mph12.3 mph11.7 mph12.6 mph12.9 mph12.2 mph10.9 mph9.5 mph9.3 mph8.6 mph8.6 mph9.9 mph9.5 mph9.1 mph9 mph8.8 mph8.5 mph7.7 mph
Wind
Direction
162°
SSE
154°
SSE
146°
SE
147°
SSE
151°
SSE
155°
SSE
161°
SSE
166°
SSE
174°
S
174°
S
175°
S
181°
S
181°
S
181°
S
189°
S
195°
SSW
199°
SSW
203°
SSW
208°
SSW
212°
SSW
211°
SSW
214°
SW
220°
SW
224°
SW
233°
SW
259°
W
306°
NW
315°
NW
320°
NW
319°
NW
316°
NW
321°
NW
322°
NW
317°
NW
316°
NW
319°
NW
319°
NW
321°
NW
317°
NW
318°
NW
320°
NW
328°
NNW
330°
NNW
333°
NNW
337°
NNW
336°
NNW
337°
NNW
343°
NNW

Daily Forecast

Date High Low Precip. Humidity
Today
Nov 28

Clear
57 °F
35 °F
0%
48%
Tuesday
Nov 29

Rain
68 °F
34 °F
34%
68%
Wednesday
Nov 30

Clear
42 °F
27 °F
0%
30%
Thursday
Dec 1

Clouds
46 °F
29 °F
0%
32%
Friday
Dec 2

Clouds
60 °F
42 °F
0%
78%
Saturday
Dec 3

Rain
49 °F
31 °F
20%
36%
Sunday
Dec 4

Rain
48 °F
36 °F
97%
97%
Monday
Dec 5

Rain
67 °F
55 °F
94%
87%
Tuesday
Dec 6

Rain
67 °F
27 °F
100%
45%
Wednesday
Dec 7

Clouds
40 °F
22 °F
0%
29%
Thursday
Dec 8

Clear
47 °F
25 °F
0%
28%
Friday
Dec 9

Clouds
51 °F
29 °F
0%
44%
Saturday
Dec 10

Clouds
53 °F
32 °F
0%
49%
Sunday
Dec 11

Clouds
45 °F
30 °F
0%
60%
Monday
Dec 12

Clouds
34 °F
22 °F
0%
31%
Tuesday
Dec 13

Clouds
36 °F
17 °F
0%
34%

Temperature 8-14 Day Outlook



Precipitation 8-14 Day Outlook






About Us
Contact Us
Site Map
Search Site
Advertise With Us
   
TableRock.USLakes.info
THE TABLE ROCK LAKE WEBSITE

Copyright 2022, Lakes Online
Privacy    |    Legal